Temperature
9 9 9 8 8 8 8 7 6 6 6 6 6 5 5 4 4 3 3 3 2 2 2 2 2 1 1 1 0 -0 -0 -1 -1 -1 -1 -1 -1 -1
9 9 8 8 8 8 7 7 6 6 5 5 5 5 4 4 3 3 2 2 2 2 2 1 1 1 0 -0 -0 -1 -1 -1 -1 -1 -2 -2 -2 -2
9 9 8 8 8 8 7 7 6 6 5 5 4 4 4 3 3 2 2 2 1 1 1 1 0 -0 -1 -1 -1 -2 -2 -2 -2 -2 -2 -2 -2 -2
9 8 8 8 8 7 7 6 6 5 5 4 4 3 3 2 2 2 1 1 1 0 0 -0 -0 -1 -1 -1 -2 -2 -3 -3 -3 -3 -3 -3 -3 -3
8 8 8 8 7 7 7 6 6 5 4 3 3 3 2 2 1 1 1 0 -0 -0 -1 -1 -1 -2 -2 -2 -3 -3 -3 -3 -4 -4 -4 -4 -4 -4
8 8 7 7 7 7 6 5 5 4 4 3 2 2 1 1 0 -0 -1 -1 -1 -1 -2 -2 -2 -3 -3 -3 -3 -4 -4 -4 -4 -5 -5 -5 -5 -5
8 7 7 7 6 6 5 5 4 4 3 2 2 1 0 -0 -1 -1 -2 -2 -2 -3 -3 -3 -3 -4 -4 -4 -4 -4 -5 -5 -5 -5 -5 -6 -6 -6
7 7 7 6 6 5 5 4 4 3 2 1 1 0 -0 -1 -2 -2 -3 -3 -4 -4 -4 -4 -5 -5 -5 -5 -5 -5 -5 -5 -6 -6 -6 -6 -6 -6
7 7 6 6 5 4 4 3 3 2 2 1 -0 -0 -1 -2 -2 -3 -3 -4 -4 -5 -5 -5 -5 -5 -5 -5 -5 -6 -6 -6 -6 -6 -6 -7 -7 -6
6 6 5 5 4 4 3 3 2 2 1 0 -1 -1 -2 -2 -3 -4 -4 -5 -5 -5 -6 -6 -6 -6 -6 -6 -6 -6 -6 -7 -7 -7 -7 -7 -7 -7
6 5 5 4 4 3 2 2 1 1 -0 -1 -1 -2 -2 -3 -4 -4 -5 -5 -6 -6 -6 -7 -7 -7 -7 -7 -7 -7 -7 -7 -7 -7 -7 -7 -7 -7
5 4 4 3 3 2 2 1 0 -0 -1 -2 -2 -2 -3 -4 -4 -5 -5 -6 -7 -7 -7 -8 -8 -8 -8 -8 -8 -8 -8 -8 -8 -7 -7 -7 -7 -7
4 3 3 3 2 1 1 -0 -1 -1 -2 -2 -3 -3 -4 -5 -5 -5 -6 -7 -7 -7 -8 -8 -9 -9 -9 -9 -9 -8 -8 -8 -8 -8 -8 -8 -7 -8
3 3 2 2 1 0 -0 -1 -2 -2 -3 -3 -4 -5 -5 -5 -6 -6 -6 -7 -7 -8 -8 -8 -9 -9 -9 -9 -9 -9 -9 -9 -9 -8 -8 -8 -8 -8
2 2 1 1 0 -1 -1 -2 -2 -3 -4 -4 -5 -5 -6 -6 -7 -7 -7 -7 -7 -8 -8 -9 -9 -9 -9 -10 -10 -9 -9 -9 -9 -9 -8 -8 -8 -8
2 1 0 -0 -1 -2 -2 -3 -3 -4 -5 -5 -6 -6 -6 -7 -7 -8 -8 -8 -8 -8 -9 -9 -9 -9 -9 -9 -9 -9 -9 -9 -9 -9 -9 -8 -8 -8
1 0 -1 -1 -2 -3 -3 -4 -4 -5 -5 -6 -6 -7 -7 -8 -8 -8 -9 -9 -9 -9 -9 -9 -9 -9 -9 -9 -9 -9 -9 -9 -9 -9 -9 -8 -8 -8
-0 -1 -2 -2 -3 -3 -4 -5 -5 -6 -6 -7 -7 -8 -8 -8 -9 -9 -9 -10 -10 -10 -10 -10 -10 -10 -10 -9 -9 -10 -10 -10 -9 -9 -9 -9 -8 -8
-1 -2 -3 -3 -4 -4 -5 -5 -6 -7 -7 -8 -8 -8 -9 -9 -9 -10 -10 -10 -10 -10 -10 -10 -11 -11 -11 -11 -10 -10 -10 -10 -10 -9 -9 -9 -9 -8
-2 -3 -3 -4 -4 -5 -6 -6 -7 -7 -8 -8 -9 -9 -9 -10 -10 -10 -10 -11 -11 -11 -11 -11 -11 -11 -11 -11 -11 -10 -10 -10 -10 -9 -9 -8 -8 -8
-3 -3 -4 -5 -5 -6 -6 -7 -7 -8 -8 -9 -9 -9 -10 -10 -10 -11 -11 -11 -11 -11 -11 -11 -11 -11 -11 -11 -11 -10 -9 -9 -10 -10 -9 -9 -8 -8
-4 -4 -5 -5 -6 -6 -7 -7 -8 -8 -9 -9 -9 -10 -10 -10 -11 -11 -11 -11 -11 -12 -12 -11 -11 -11 -11 -11 -11 -10 -10 -9 -9 -9 -9 -9 -9 -9
-4 -5 -5 -6 -6 -7 -7 -8 -8 -9 -9 -10 -10 -10 -10 -11 -11 -11 -12 -12 -12 -12 -12 -12 -11 -11 -11 -11 -11 -10 -10 -9 -9 -8 -8 -8 -9 -8
Wind_Speed
11 10 8 6 6 6 5 5 4 5 6 5 4 5 6 7 6 9 11 11 13 15 16 17 18 19 20 20 21 21 22 22 23 23 24 24 25 25
8 10 9 7 6 5 5 5 5 6 5 4 5 5 6 7 8 10 11 12 15 16 17 18 19 20 21 21 21 22 23 23 23 24 24 25 25 25
10 10 10 8 6 6 6 6 6 6 7 6 5 5 6 7 7 9 11 12 12 14 16 18 19 20 21 21 22 22 23 23 23 24 24 25 25 25
11 11 10 8 9 7 6 7 6 7 6 7 6 5 7 7 8 9 10 11 12 14 17 19 20 20 21 21 21 22 22 22 22 23 24 24 25 25
11 11 10 10 10 7 7 7 5 5 5 6 6 5 6 6 8 9 10 10 12 13 16 17 18 19 21 21 22 22 21 21 22 22 23 24 24 25
9 9 9 10 10 8 7 7 5 5 5 5 6 6 6 6 7 8 9 9 9 11 13 15 16 18 20 20 21 21 20 21 21 22 23 23 24 24
8 8 8 8 8 7 6 6 6 5 5 5 6 6 7 6 7 7 9 10 11 9 10 10 12 13 15 17 18 18 19 21 22 22 22 22 23 23
9 8 7 7 8 9 8 8 7 6 6 5 6 7 9 8 8 8 9 10 10 6 9 11 11 12 12 14 16 19 21 21 21 21 21 21 22 23
8 7 6 6 8 6 7 8 8 7 6 6 7 9 9 8 9 10 10 11 11 10 11 12 11 12 12 14 18 19 20 20 19 20 20 21 22 22
7 7 7 6 6 6 6 5 6 6 6 7 7 8 8 8 8 9 11 11 11 10 9 10 11 11 11 13 16 18 18 18 19 20 20 21 21 22
6 5 6 6 7 7 5 5 5 5 5 8 9 9 9 9 9 7 7 8 10 10 7 7 10 12 12 11 12 14 16 17 18 19 20 20 20 20
5 4 5 5 6 7 5 5 5 5 4 4 6 6 7 7 8 7 6 8 9 8 5 6 9 9 8 7 8 12 13 15 17 18 18 18 18 14
5 4 3 5 5 6 5 3 4 4 3 4 4 5 5 5 5 6 5 6 8 8 7 7 8 9 8 10 11 11 10 11 12 13 15 15 16 14
4 4 3 5 5 4 3 2 3 3 2 3 4 4 5 5 6 6 7 7 8 9 11 9 8 9 11 12 11 10 10 11 11 10 10 13 14 15
4 5 5 5 4 3 1 1 1 2 2 3 4 5 5 6 6 6 6 6 8 9 10 9 8 9 9 10 11 12 12 11 9 9 10 10 10 10
5 6 6 5 3 1 0 1 1 2 3 4 5 5 5 5 5 5 6 6 7 7 6 8 9 9 9 11 11 12 11 9 9 11 11 11 10 10
5 3 2 2 1 0 0 1 2 2 3 4 4 5 5 5 5 5 5 6 6 8 7 6 7 9 9 10 10 10 10 10 10 11 11 11 11 10
5 3 2 2 1 1 1 2 2 3 3 4 4 5 5 6 6 6 6 6 7 7 7 7 7 7 7 6 6 9 9 10 11 11 11 11 12 11
3 3 2 1 1 1 2 2 3 3 3 4 4 5 5 5 6 6 6 6 7 7 7 6 6 7 9 9 5 5 9 11 11 11 10 10 12 12
2 2 2 1 1 1 2 2 3 3 3 4 4 5 5 5 6 6 6 7 7 7 7 6 6 6 7 9 8 9 11 10 10 11 11 11 11 13
2 2 1 1 1 2 2 3 3 3 4 4 4 5 5 5 6 6 6 8 7 7 7 7 7 9 7 6 8 8 9 11 12 10 11 11 11 9
2 2 1 1 2 2 2 3 3 3 4 4 4 4 4 5 5 6 6 7 6 7 8 7 6 6 6 7 9 11 11 12 12 14 11 9 7 7
2 1 1 2 2 2 3 3 4 4 4 4 4 4 4 5 5 5 6 6 6 7 7 7 6 6 6 7 8 9 11 12 11 10 9 10 12 14
Wind_Direction
205 204 206 205 202 206 208 213 229 254 261 245 235 230 233 250 259 269 278 282 285 288 290 292 294 295 295 296 296 297 298 298 297 297 297 297 297 297
198 200 204 203 199 198 201 210 223 238 257 258 245 245 242 255 263 272 279 284 280 282 286 290 292 293 293 294 295 297 297 297 297 297 297 298 298 298
194 199 202 195 195 198 199 206 217 225 246 263 259 259 261 265 269 273 280 283 284 282 286 290 292 293 293 294 296 296 297 297 298 298 298 299 299 298
194 195 198 192 200 199 202 210 217 223 240 261 267 264 267 274 279 282 284 284 285 287 287 289 290 291 293 294 295 297 298 298 299 299 299 299 299 298
193 194 196 194 202 202 206 213 217 223 236 254 269 273 273 275 284 285 285 285 287 288 288 288 288 291 292 293 295 297 298 299 299 299 299 298 298 298
191 194 194 198 204 202 204 211 211 217 230 247 264 273 276 282 285 289 292 292 293 293 291 291 292 292 291 293 295 296 297 298 299 299 298 298 297 297
185 191 194 198 204 201 201 205 204 215 228 246 262 274 278 284 285 291 293 298 296 294 294 294 296 295 296 294 294 296 299 300 300 300 300 300 300 300
185 188 190 194 203 205 208 209 207 216 229 245 262 270 280 287 290 292 294 298 300 302 300 298 298 296 296 295 298 302 302 302 302 302 303 303 303 302
184 184 186 193 198 202 209 215 221 228 237 253 263 273 286 292 294 291 290 291 292 301 302 296 298 297 299 298 301 302 303 304 305 306 305 304 304 304
181 185 188 188 191 194 201 215 230 235 243 256 269 280 288 294 292 290 293 293 293 293 293 294 301 302 306 302 301 303 305 307 308 308 307 306 306 304
172 177 185 190 184 191 201 218 238 251 250 261 278 287 292 293 296 295 294 295 297 300 299 294 304 309 305 299 301 307 306 306 308 309 308 307 307 306
161 170 182 191 183 191 206 221 242 262 267 270 275 281 287 289 290 287 290 293 300 302 309 307 306 315 307 301 309 311 309 307 308 308 308 307 307 306
163 170 174 178 183 194 214 232 258 278 271 271 279 286 291 292 293 292 289 286 290 289 302 309 301 302 294 299 306 307 308 311 312 310 309 307 307 306
165 168 161 166 176 187 210 253 275 279 278 282 286 289 293 295 297 298 294 285 278 282 292 297 291 296 297 298 302 308 312 311 310 310 311 311 308 305
140 134 135 145 159 175 176 259 273 282 289 289 290 294 297 299 301 302 301 294 287 284 288 292 290 292 290 291 296 302 308 311 310 314 315 312 310 308
122 124 126 122 123 108 127 262 298 307 303 295 298 302 305 306 304 307 306 308 304 304 301 299 296 293 290 290 291 296 303 304 309 313 313 310 306 303
130 126 136 149 167 194 281 302 307 309 303 305 303 304 307 308 309 311 307 306 305 309 316 319 310 299 287 285 289 295 304 309 312 315 314 310 308 307
133 145 157 175 204 243 272 291 300 304 305 303 301 303 307 308 308 309 308 306 306 310 315 322 324 321 313 290 261 290 304 311 314 314 311 308 308 312
137 153 168 188 218 250 273 288 296 303 303 298 298 301 305 306 307 309 311 310 309 311 315 320 324 324 320 320 309 281 305 312 313 312 311 310 307 308
142 158 174 195 229 256 273 284 292 297 296 296 297 299 300 304 307 310 312 315 313 314 314 317 319 318 309 307 304 302 303 304 310 311 312 310 304 299
155 165 183 213 243 261 273 281 286 288 295 297 298 300 300 301 303 307 309 312 309 309 313 315 318 313 299 291 295 303 310 312 307 302 307 311 313 313
167 183 206 232 249 260 270 277 282 285 289 289 295 298 297 296 299 302 306 308 307 308 309 311 315 313 308 304 307 311 315 319 317 310 297 288 302 313
189 210 229 243 253 262 267 272 276 281 285 290 294 295 295 294 296 299 303 303 306 308 311 314 317 316 312 307 308 312 317 322 325 327 323 321 313 301
Height
1515 1516 1517 1518 1519 1519 1520 1520 1520 1519 1517 1516 1514 1512 1511 1509 1506 1504 1502 1499 1497 1494 1492 1489 1486 1483 1480 1477 1474 1472 1469 1466 1463 1461 1459 1456 1454 1452
1510 1511 1512 1513 1514 1515 1515 1515 1515 1515 1513 1511 1510 1508 1506 1504 1502 1499 1497 1494 1491 1489 1486 1483 1480 1477 1474 1471 1468 1465 1462 1459 1457 1454 1451 1449 1447 1444
1504 1506 1507 1508 1509 1510 1510 1510 1510 1509 1508 1506 1505 1504 1502 1499 1497 1494 1492 1489 1486 1483 1480 1476 1473 1470 1467 1464 1461 1458 1455 1452 1449 1446 1444 1442 1439 1437
1499 1501 1502 1503 1504 1505 1505 1505 1505 1504 1503 1501 1500 1498 1496 1494 1492 1489 1486 1483 1480 1477 1473 1470 1467 1463 1460 1457 1454 1451 1447 1444 1442 1439 1436 1434 1431 1429
1494 1496 1497 1498 1499 1500 1500 1500 1499 1499 1498 1496 1495 1493 1491 1489 1486 1483 1480 1477 1474 1470 1467 1463 1460 1457 1453 1450 1447 1443 1440 1437 1434 1432 1429 1426 1424 1421
1489 1491 1492 1493 1494 1494 1495 1494 1494 1494 1493 1491 1489 1488 1486 1483 1480 1477 1474 1471 1468 1464 1460 1457 1454 1450 1447 1443 1440 1436 1433 1430 1427 1424 1422 1419 1416 1414
1484 1486 1487 1488 1489 1489 1490 1489 1489 1488 1487 1486 1484 1482 1480 1478 1475 1472 1468 1465 1461 1458 1454 1451 1447 1444 1440 1437 1433 1430 1426 1423 1420 1417 1414 1412 1409 1406
1479 1481 1482 1483 1484 1484 1485 1484 1484 1484 1482 1481 1479 1478 1475 1473 1470 1467 1464 1460 1456 1454 1449 1445 1442 1438 1434 1431 1428 1424 1420 1417 1413 1411 1408 1405 1402 1399
1475 1476 1477 1478 1479 1479 1479 1479 1479 1478 1478 1477 1475 1473 1470 1468 1465 1462 1459 1455 1451 1448 1444 1439 1437 1432 1429 1425 1422 1418 1414 1411 1407 1404 1401 1398 1395 1393
1471 1472 1473 1473 1474 1474 1474 1474 1474 1473 1472 1471 1469 1467 1465 1462 1460 1457 1454 1450 1446 1443 1440 1434 1431 1428 1424 1420 1416 1413 1409 1405 1402 1398 1395 1392 1389 1386
1466 1467 1468 1469 1469 1470 1470 1469 1469 1468 1467 1465 1464 1461 1459 1457 1454 1451 1448 1445 1440 1438 1435 1431 1426 1422 1418 1414 1411 1408 1404 1400 1397 1393 1390 1387 1384 1381
1462 1463 1464 1465 1465 1465 1465 1465 1464 1463 1462 1460 1458 1456 1454 1451 1449 1447 1444 1440 1436 1433 1430 1427 1423 1419 1413 1409 1407 1404 1400 1396 1392 1389 1385 1382 1379 1376
1459 1460 1460 1461 1461 1461 1461 1460 1460 1458 1456 1454 1452 1450 1448 1446 1444 1441 1439 1436 1433 1429 1427 1423 1419 1416 1413 1407 1403 1400 1396 1392 1388 1385 1381 1378 1375 1372
1456 1457 1457 1458 1458 1457 1457 1456 1455 1454 1452 1450 1448 1445 1443 1441 1439 1436 1434 1431 1428 1425 1422 1419 1416 1412 1409 1404 1400 1396 1393 1389 1385 1382 1378 1375 1372 1369
1453 1454 1454 1454 1454 1453 1453 1452 1450 1449 1447 1445 1443 1441 1439 1437 1434 1431 1429 1426 1423 1421 1418 1415 1412 1409 1405 1401 1397 1393 1389 1386 1383 1379 1375 1372 1369 1365
1450 1450 1450 1450 1450 1450 1449 1448 1446 1445 1443 1442 1439 1437 1435 1432 1430 1427 1425 1422 1419 1416 1414 1411 1408 1405 1401 1398 1395 1391 1388 1384 1380 1377 1373 1369 1366 1362
1447 1447 1447 1447 1447 1446 1445 1444 1442 1441 1439 1438 1436 1433 1431 1429 1426 1424 1421 1419 1416 1413 1410 1407 1405 1402 1398 1395 1391 1388 1385 1382 1378 1374 1370 1365 1362 1359
1444 1444 1444 1444 1443 1442 1441 1440 1439 1437 1436 1434 1432 1430 1428 1426 1423 1421 1419 1416 1413 1411 1408 1405 1401 1398 1395 1392 1390 1386 1383 1379 1376 1372 1368 1363 1359 1356
1441 1441 1441 1440 1440 1439 1438 1437 1435 1434 1432 1430 1429 1427 1425 1422 1420 1418 1416 1414 1411 1409 1406 1403 1400 1397 1394 1390 1388 1385 1381 1377 1373 1369 1365 1361 1356 1352
1438 1438 1438 1437 1437 1436 1434 1433 1432 1430 1429 1427 1425 1423 1422 1420 1418 1416 1414 1411 1409 1406 1404 1401 1399 1396 1393 1390 1386 1382 1380 1375 1371 1366 1362 1358 1354 1350
1435 1435 1435 1434 1433 1432 1431 1430 1428 1427 1425 1424 1422 1420 1419 1417 1415 1413 1411 1409 1407 1404 1402 1399 1397 1395 1391 1388 1384 1380 1377 1374 1370 1365 1360 1355 1351 1347
1432 1432 1432 1431 1430 1429 1428 1426 1425 1423 1422 1421 1419 1417 1416 1414 1413 1411 1409 1407 1405 1402 1400 1397 1395 1392 1390 1387 1383 1379 1375 1371 1368 1364 1360 1356 1353 1347
1429 1429 1428 1428 1427 1425 1424 1423 1422 1420 1419 1418 1416 1415 1413 1412 1410 1408 1406 1404 1402 1400 1398 1396 1393 1391 1388 1385 1382 1378 1374 1370 1366 1362 1359 1356 1352 1348